Погода в Осинниках

Россия / Кемеровская область (Кузбасс)     53°35′55″N   87°20′13″E
темп.,
°C
ветер,
м/с
пор.,
м/с
влажн.,
%
обл.,
%
осадки,
мм/ч
давл.,
гПа
погр.,
м
25 мая, ср
ср2501:00+14св1153100 0.0 101310
04:00+12всв1167100 0.0 101311
07:00+15св1269100 0.0 101390
10:00+21ссв2249100 0.0 1012611
13:00+25ссв3241100 0.0 10111145
16:00+26с4440100 0.0 10111105
19:00+24ссз36482 0.0 1010471
22:00+16с11744 0.0 101111
26 мая, чт
чт2601:00+14св11850 0.0 101110
04:00+13ссв118919 0.0 101112
07:00+17св127639 0.0 1012117
10:00+24св23435 0.1 1011812
13:00+27ссв33350 0.1 10101626
16:00+28ссв33330 0.0 10091925
19:00+26ссз25420 0.0 1009369
22:00+17с24590 0.0 101066
27 мая, пт
пт2701:00+14св117010 0.0 100913
04:00+13св117881 0.0 100911
07:00+15с017096 0.0 100891
10:00+22сз0049100 0.1 1007622
13:00+24ссз33395 0.2 10071426
16:00+25ссз45400 0.0 10061545
19:00+22сз58400 0.0 1007894
22:00+14сз22500 0.0 100920
28 мая, сб
сб2801:00+10ссв11620 0.0 101015
04:00+8ююв11751 0.0 101110
07:00+12юв01665 0.0 101297
10:00+20ююв2342100 0.0 1010947
13:00+24зюз1129100 0.0 10091688
16:00+25сз3227100 0.0 10091666
19:00+22ссз2447100 0.0 1009179
22:00+15сз116253 0.0 101011
29 мая, вс
вс2901:00+12зсз117237 0.0 101110
04:00+11юз1178100 0.0 101110
07:00+14зюз1267100 0.0 101293
10:00+20зюз124497 0.0 1011700
13:00+24сз233593 0.0 10101998
16:00+24с343595 0.0 10102087
19:00+22ссз2448100 0.0 1011259
22:00+17ссз1159100 0.0 101211